| time (UTC) | temp C | wind direction | speed KPH | gust KPH | rain 1hr cm | rain 24hr cm | rain mn cm | humidity % | barometer mb |
| 20260505070103 | 10 | 131 | 0.0 | 0.0 | 0.00 | 0.00 | 0.00 | 79 | 1013.1 |
| 20260505070006 | 10 | 131 | 0.0 | 0.0 | 0.00 | 0.00 | 0.00 | 79 | 1013.1 |
| 20260505064545 | 10 | 131 | 0.0 | 1.6 | 0.00 | 0.00 | 0.00 | 78 | 1013.2 |
| 20260505063042 | 10 | 131 | 0.0 | 0.0 | 0.00 | 0.00 | 0.00 | 79 | 1013.3 |
| 20260505061557 | 10 | 131 | 0.0 | 0.0 | 0.00 | 0.00 | 0.00 | 79 | 1013.5 |
| 20260505060059 | 10 | 131 | 0.0 | 0.0 | 0.00 | 0.00 | 0.00 | 79 | 1013.7 |
| 20260505054507 | 11 | 131 | 0.0 | 0.0 | 0.00 | 0.00 | 0.00 | 78 | 1013.5 |
| 20260505053011 | 11 | 131 | 0.0 | 1.6 | 0.00 | 0.00 | 0.00 | 76 | 1013.6 |
| 20260505051514 | 11 | 131 | 0.0 | 1.6 | 0.00 | 0.00 | 0.00 | 76 | 1013.6 |
| 20260505041514 | 12 | 131 | 0.0 | 0.0 | 0.00 | 0.00 | 0.00 | 71 | 1013.6 |
| 20260505040011 | 13 | 131 | 0.0 | 0.0 | 0.00 | 0.00 | 0.00 | 68 | 1013.5 |
| 20260505034515 | 14 | 131 | 0.0 | 0.0 | 0.00 | 0.00 | 0.00 | 66 | 1013.6 |
| 20260505033026 | 14 | 131 | 0.0 | 0.0 | 0.00 | 0.00 | 0.00 | 66 | 1013.7 |
| 20260505031533 | 15 | 131 | 0.0 | 1.6 | 0.00 | 0.00 | 0.00 | 65 | 1013.9 |
| 20260505030018 | 14 | 131 | 0.0 | 1.6 | 0.00 | 0.00 | 0.00 | 64 | 1014.0 |
| 20260505024535 | 15 | 131 | 0.0 | 0.0 | 0.00 | 0.00 | 0.00 | 64 | 1013.9 |
| 20260505023052 | 15 | 131 | 0.0 | 0.0 | 0.00 | 0.00 | 0.00 | 62 | 1013.8 |
| 20260505021548 | 15 | 131 | 0.0 | 1.6 | 0.00 | 0.00 | 0.00 | 62 | 1013.8 |
| 20260505020054 | 15 | 131 | 0.0 | 0.0 | 0.00 | 0.00 | 0.00 | 62 | 1013.6 |
| 20260505014510 | 16 | 131 | 0.0 | 0.0 | 0.00 | 0.00 | 0.00 | 61 | 1013.4 |
| 20260505013056 | 16 | 131 | 0.0 | 1.6 | 0.00 | 0.00 | 0.00 | 61 | 1013.1 |
| 20260505011551 | 16 | 130 | 0.0 | 1.6 | 0.00 | 0.00 | 0.00 | 59 | 1013.1 |
| 20260505010046 | 17 | 130 | 0.0 | 1.6 | 0.00 | 0.00 | 0.00 | 58 | 1013.1 |
| 20260505004553 | 17 | 131 | 0.0 | 1.6 | 0.00 | 0.00 | 0.00 | 55 | 1012.9 |
| 20260505003050 | 18 | 131 | 0.0 | 1.6 | 0.00 | 0.00 | 0.00 | 53 | 1012.7 |
| 20260505001559 | 19 | 131 | 0.0 | 0.0 | 0.00 | 0.00 | 0.00 | 50 | 1012.6 |
| 20260505000116 | 20 | 131 | 0.0 | 4.8 | 0.00 | 0.00 | 0.00 | 48 | 1012.6 |
| 20260504234558 | 20 | 131 | 0.0 | 6.4 | 0.00 | 0.00 | 0.00 | 45 | 1012.4 |
| 20260504233101 | 21 | 130 | 0.0 | 4.8 | 0.00 | 0.00 | 0.00 | 44 | 1012.3 |
| 20260504231602 | 21 | 131 | 0.0 | 3.2 | 0.00 | 0.00 | 0.00 | 43 | 1012.1 |
| 20260504231501 | 21 | 131 | 0.0 | 3.2 | 0.00 | 0.00 | 0.00 | 43 | 1012.1 |
| 20260504230106 | 21 | 130 | 1.6 | 9.7 | 0.00 | 0.00 | 0.00 | 41 | 1012.1 |
| 20260504230005 | 21 | 131 | 1.6 | 9.7 | 0.00 | 0.00 | 0.00 | 41 | 1012.1 |
| 20260504224552 | 21 | 131 | 0.0 | 6.4 | 0.00 | 0.00 | 0.00 | 40 | 1012.1 |
| 20260504223104 | 21 | 131 | 0.0 | 8.0 | 0.00 | 0.00 | 0.00 | 37 | 1012.2 |
| 20260504221605 | 21 | 131 | 0.0 | 6.4 | 0.00 | 0.00 | 0.00 | 36 | 1012.2 |
| 20260504220002 | 21 | 130 | 1.6 | 9.7 | 0.00 | 0.00 | 0.00 | 36 | 1012.3 |
| 20260504214559 | 21 | 131 | 1.6 | 8.0 | 0.00 | 0.00 | 0.00 | 36 | 1012.2 |
| 20260504213004 | 22 | 131 | 0.0 | 6.4 | 0.00 | 0.00 | 0.00 | 36 | 1012.2 |
| 20260504211503 | 22 | 131 | 0.0 | 8.0 | 0.00 | 0.00 | 0.00 | 37 | 1012.3 |
| 20260504210004 | 22 | 131 | 0.0 | 6.4 | 0.00 | 0.00 | 0.00 | 34 | 1012.2 |
| 20260504204505 | 23 | 130 | 0.0 | 3.2 | 0.00 | 0.00 | 0.00 | 31 | 1012.5 |
| 20260504203059 | 22 | 131 | 0.0 | 1.6 | 0.00 | 0.00 | 0.00 | 33 | 1012.4 |
| 20260504201530 | 22 | 131 | 0.0 | 3.2 | 0.00 | 0.00 | 0.00 | 33 | 1012.4 |
| 20260504200030 | 22 | 130 | 3.2 | 9.7 | 0.00 | 0.00 | 0.00 | 34 | 1012.5 |
| 20260504194531 | 23 | 131 | 0.0 | 3.2 | 0.00 | 0.00 | 0.00 | 37 | 1012.7 |
| 20260504193034 | 23 | 131 | 0.0 | 1.6 | 0.00 | 0.00 | 0.00 | 39 | 1012.9 |
| 20260504191540 | 22 | 131 | 0.0 | 1.6 | 0.00 | 0.00 | 0.00 | 39 | 1013.2 |
| 20260504190036 | 22 | 131 | 0.0 | 4.8 | 0.00 | 0.00 | 0.00 | 38 | 1013.3 |
| 20260504184535 | 22 | 130 | 0.0 | 4.8 | 0.00 | 0.00 | 0.00 | 38 | 1013.5 |
| 20260504183036 | 22 | 130 | 0.0 | 3.2 | 0.00 | 0.00 | 0.00 | 41 | 1013.8 |
| 20260504181518 | 22 | 131 | 0.0 | 4.8 | 0.00 | 0.00 | 0.00 | 41 | 1013.9 |
| 20260504180019 | 22 | 130 | 0.0 | 1.6 | 0.00 | 0.00 | 0.00 | 39 | 1014.2 |
| 20260504174522 | 22 | 130 | 0.0 | 3.2 | 0.00 | 0.00 | 0.00 | 41 | 1014.3 |
| 20260504173022 | 21 | 131 | 0.0 | 3.2 | 0.00 | 0.00 | 0.00 | 41 | 1014.7 |
| 20260504171513 | 21 | 130 | 0.0 | 3.2 | 0.00 | 0.00 | 0.00 | 41 | 1014.8 |
| 20260504081529 | 3 | 131 | 0.0 | 0.0 | 0.00 | 0.00 | 0.00 | 90 | 1016.5 |